When you browse on this site, cookies collect data to enhance your experience and personalize the content and advertising you see.
Visit our Privacy Policy to learn more. By continuing to use the site, you agree to this use of cookies and data.
  • In Hungary
  • List of Countries
  • For 7 days
  • Water Temperature
  • Satellite Maps
  • Weather Map
  • News
  • Weather Widgets
  • user-avatar
    Login

    Hourly Weather Terebovlya

    Today, 17 January, Thursday

    Time Temperature Precipitation Wind Pressure Humidity
    00:00 -1°C° 0 mm 3 mps 726 mmHg 96%
    01:00 -1°C° 0 mm 3 mps 726 mmHg 95%
    02:00 -1°C° 0 mm 2 mps 726 mmHg 97%
    03:00 -1°C° 0 mm 3 mps 725 mmHg 95%
    04:00 -1°C° 0 mm 3 mps 725 mmHg 93%
    05:00 -2°C° 0 mm 3 mps 724 mmHg 92%
    06:00 -2°C° 0 mm 3 mps 724 mmHg 91%
    07:00 -4°C° 0 mm 3 mps 724 mmHg 89%
    08:00 -4°C° 0 mm 3 mps 724 mmHg 88%
    09:00 -3°C° 0 mm 4 mps 724 mmHg 87%
    10:00 -2°C° 0 mm 4 mps 724 mmHg 87%
    11:00 -1°C° 0 mm 4 mps 724 mmHg 86%
    12:00 -1°C° 0 mm 4 mps 724 mmHg 89%
    13:00 0°C° 0 mm 3 mps 724 mmHg 91%
    14:00 0°C° 0 mm 3 mps 724 mmHg 94%
    15:00 0°C° 0 mm 3 mps 724 mmHg 91%
    16:00 0°C° 0 mm 3 mps 724 mmHg 88%
    17:00 0°C° 0 mm 3 mps 724 mmHg 85%
    18:00 0°C° 0 mm 3 mps 724 mmHg 84%
    19:00 0°C° 0 mm 3 mps 724 mmHg 84%
    20:00 -1°C° 0 mm 3 mps 724 mmHg 83%
    21:00 -1°C° 0 mm 2 mps 724 mmHg 83%
    22:00 -1°C° 0 mm 2 mps 724 mmHg 83%
    23:00 -1°C° 0 mm 2 mps 724 mmHg 83%

    Tomorrow, 18 January, Friday

    Time Temperature Precipitation Wind Pressure Humidity
    00:00 -1°C° 0 mm 2 mps 724 mmHg 83%
    01:00 -2°C° 0 mm 2 mps 724 mmHg 84%
    02:00 -2°C° 0 mm 2 mps 724 mmHg 84%
    03:00 -1°C° 0 mm 3 mps 724 mmHg 85%
    04:00 -1°C° 0 mm 3 mps 724 mmHg 86%
    05:00 0°C° 0 mm 3 mps 724 mmHg 87%
    06:00 +1°C° 0 mm 2 mps 724 mmHg 87%
    07:00 +1°C° 0 mm 2 mps 724 mmHg 87%
    08:00 -1°C° 0 mm 2 mps 724 mmHg 88%
    09:00 +1°C° 0.2 mm 2 mps 724 mmHg 90%
    10:00 +1°C° 0.2 mm 2 mps 724 mmHg 93%
    11:00 +1°C° 0.2 mm 2 mps 725 mmHg 96%
    12:00 +1°C° 0.1 mm 2 mps 725 mmHg 97%
    13:00 0°C° 0.1 mm 3 mps 725 mmHg 98%
    14:00 0°C° 0.1 mm 3 mps 725 mmHg 99%
    15:00 0°C° 0.1 mm 3 mps 726 mmHg 97%
    16:00 -1°C° 0.1 mm 4 mps 726 mmHg 95%
    17:00 -1°C° 0.1 mm 4 mps 727 mmHg 92%
    18:00 -2°C° 0.1 mm 4 mps 727 mmHg 91%
    19:00 -2°C° 0.1 mm 4 mps 728 mmHg 90%
    20:00 -3°C° 0.1 mm 4 mps 729 mmHg 89%
    21:00 -3°C° 0 mm 4 mps 729 mmHg 89%
    22:00 -4°C° 0 mm 4 mps 730 mmHg 89%
    23:00 -4°C° 0 mm 4 mps 730 mmHg 90%

    Day after tomorrow, 19 January, Saturday

    Time Temperature Precipitation Wind Pressure Humidity
    00:00 -5°C° 0 mm 3 mps 731 mmHg 91%
    01:00 -5°C° 0 mm 3 mps 731 mmHg 92%
    02:00 -5°C° 0 mm 3 mps 732 mmHg 93%
    03:00 -6°C° 0 mm 3 mps 732 mmHg 93%
    04:00 -7°C° 0 mm 3 mps 732 mmHg 93%
    05:00 -8°C° 0 mm 3 mps 732 mmHg 93%
    06:00 -8°C° 0 mm 3 mps 733 mmHg 93%
    07:00 -7°C° 0 mm 2 mps 733 mmHg 92%
    08:00 -8°C° 0 mm 2 mps 733 mmHg 92%
    09:00 -7°C° 0 mm 2 mps 734 mmHg 91%
    10:00 -6°C° 0 mm 2 mps 734 mmHg 90%
    11:00 -5°C° 0 mm 2 mps 735 mmHg 90%
    12:00 -5°C° 0 mm 2 mps 735 mmHg 89%
    13:00 -2°C° 0 mm 1 mps 734 mmHg 87%
    14:00 -2°C° 0 mm 1 mps 734 mmHg 86%
    15:00 -3°C° 0 mm 1 mps 734 mmHg 87%
    16:00 -5°C° 0 mm 0 mps 734 mmHg 88%
    17:00 -6°C° 0 mm 0 mps 734 mmHg 89%
    18:00 -6°C° 0 mm 0 mps 734 mmHg 89%
    19:00 -6°C° 0 mm 1 mps 735 mmHg 89%
    20:00 -6°C° 0 mm 1 mps 735 mmHg 89%
    21:00 -8°C° 0 mm 2 mps 735 mmHg 89%
    22:00 -8°C° 0 mm 2 mps 735 mmHg 89%
    23:00 -8°C° 0 mm 2 mps 735 mmHg 89%

    20 January, Sunday

    Time Temperature Precipitation Wind Pressure Humidity
    00:00 -10°C° 0 mm 3 mps 734 mmHg 89%
    01:00 -10°C° 0 mm 3 mps 734 mmHg 89%
    02:00 -10°C° 0 mm 3 mps 734 mmHg 89%
    03:00 -10°C° 0 mm 3 mps 733 mmHg 89%
    04:00 -11°C° 0 mm 4 mps 733 mmHg 89%
    05:00 -11°C° 0 mm 4 mps 732 mmHg 89%
    06:00 -10°C° 0 mm 4 mps 732 mmHg 89%
    07:00 -11°C° 0 mm 5 mps 732 mmHg 89%
    08:00 -11°C° 0 mm 5 mps 732 mmHg 89%
    09:00 -10°C° 0.1 mm 5 mps 732 mmHg 89%
    10:00 -10°C° 0.1 mm 5 mps 731 mmHg 90%
    11:00 -9°C° 0.1 mm 6 mps 731 mmHg 90%
    12:00 -8°C° 0 mm 5 mps 731 mmHg 90%
    13:00 -8°C° 0 mm 5 mps 730 mmHg 89%
    14:00 -8°C° 0 mm 4 mps 730 mmHg 89%
    15:00 -8°C° 0.1 mm 4 mps 729 mmHg 90%
    16:00 -7°C° 0.1 mm 3 mps 729 mmHg 92%
    17:00 -6°C° 0.1 mm 2 mps 729 mmHg 94%
    18:00 -6°C° 0.1 mm 2 mps 729 mmHg 95%
    19:00 -4°C° 0.1 mm 1 mps 729 mmHg 96%
    20:00 -4°C° 0.1 mm 1 mps 729 mmHg 96%
    21:00 -4°C° 0.1 mm 1 mps 729 mmHg 96%
    22:00 -4°C° 0.1 mm 1 mps 730 mmHg 96%
    23:00 -4°C° 0.1 mm 1 mps 730 mmHg 96%

    21 January, Monday

    Time Temperature Precipitation Wind Pressure Humidity
    00:00 -4°C° 0 mm 1 mps 730 mmHg 96%
    01:00 -6°C° 0 mm 2 mps 730 mmHg 96%
    02:00 -6°C° 0 mm 2 mps 730 mmHg 96%
    03:00 -6°C° 0 mm 2 mps 730 mmHg 96%
    04:00 -7°C° 0 mm 3 mps 730 mmHg 95%
    05:00 -7°C° 0 mm 3 mps 730 mmHg 95%
    06:00 -8°C° 0 mm 3 mps 731 mmHg 95%
    07:00 -8°C° 0 mm 3 mps 731 mmHg 94%
    08:00 -8°C° 0 mm 2 mps 732 mmHg 93%
    09:00 -8°C° 0 mm 3 mps 732 mmHg 92%
    10:00 -8°C° 0 mm 3 mps 733 mmHg 91%
    11:00 -8°C° 0 mm 3 mps 733 mmHg 89%
    12:00 -7°C° 0 mm 3 mps 733 mmHg 90%
    13:00 -6°C° 0 mm 3 mps 733 mmHg 90%
    14:00 -6°C° 0 mm 3 mps 733 mmHg 90%
    15:00 -6°C° 0 mm 3 mps 733 mmHg 90%
    16:00 -6°C° 0 mm 2 mps 734 mmHg 89%
    17:00 -6°C° 0 mm 2 mps 734 mmHg 89%
    18:00 -6°C° 0 mm 1 mps 734 mmHg 90%
    19:00 -8°C° 0 mm 1 mps 734 mmHg 91%
    20:00 -9°C° 0 mm 1 mps 735 mmHg 91%
    21:00 -9°C° 0 mm 1 mps 735 mmHg 91%
    22:00 -9°C° 0 mm 1 mps 735 mmHg 90%
    23:00 -10°C° 0 mm 1 mps 735 mmHg 90%

    22 January, Tuesday

    Time Temperature Precipitation Wind Pressure Humidity
    00:00 -10°C° 0 mm 1 mps 735 mmHg 89%
    01:00 -10°C° 0 mm 1 mps 734 mmHg 89%
    02:00 -12°C° 0 mm 2 mps 734 mmHg 88%
    03:00 -12°C° 0 mm 2 mps 734 mmHg 89%
    04:00 -13°C° 0 mm 2 mps 733 mmHg 89%
    05:00 -14°C° 0 mm 3 mps 733 mmHg 89%
    06:00 -14°C° 0 mm 3 mps 733 mmHg 90%
    07:00 -14°C° 0 mm 3 mps 733 mmHg 91%
    08:00 -14°C° 0 mm 3 mps 732 mmHg 91%
    09:00 -15°C° 0 mm 4 mps 732 mmHg 92%
    10:00 -14°C° 0 mm 4 mps 732 mmHg 92%
    11:00 -12°C° 0 mm 4 mps 732 mmHg 93%
    12:00 -12°C° 0 mm 5 mps 731 mmHg 92%
    13:00 -12°C° 0 mm 5 mps 730 mmHg 92%
    14:00 -11°C° 0 mm 5 mps 729 mmHg 91%
    15:00 -11°C° 0 mm 5 mps 729 mmHg 91%
    16:00 -11°C° 0 mm 5 mps 728 mmHg 91%
    17:00 -11°C° 0 mm 5 mps 728 mmHg 92%
    18:00 -12°C° 0.4 mm 5 mps 727 mmHg 92%
    19:00 -12°C° 0.4 mm 6 mps 727 mmHg 93%
    20:00 -12°C° 0.4 mm 6 mps 726 mmHg 94%
    21:00 -11°C° 0.3 mm 6 mps 726 mmHg 93%
    22:00 -11°C° 0.3 mm 6 mps 725 mmHg 93%
    23:00 -11°C° 0.3 mm 5 mps 725 mmHg 93%
    Show more